Weather History for KI75 - November, 2012

Change the Weather History Date:

Monday, November 5, 2012

  Actual Average (KLWD) Record (KLWD)
Temperature  
Mean Temperature 42 °F 45 °F  
Max Temperature 43 °F 55 °F 68 °F (2008)
Min Temperature 40 °F 35 °F 18 °F (1976)
Degree Days  
Heating Degree Days 24 20  
Month to date heating degree days 96  
Since 1 July heating degree days 580  
Cooling Degree Days 0 0  
Month to date cooling degree days 0  
Year to date cooling degree days 946  
Moisture  
Dew Point 38 °F    
Average Humidity 89    
Maximum Humidity 93    
Minimum Humidity 85    
Precipitation  
Precipitation 0.17 in 0.11 in 0.82 in (2008)
Month to date precipitation 0.60  
Sea Level Pressure  
Sea Level Pressure 30.09 in    
Wind  
Wind Speed 7 mph (ENE)    
Max Wind Speed 12 mph    
Max Gust Speed 16 mph    
Visibility 5 miles    
Events Rain    
T = Trace of Precipitation, MM = Missing Value Source: NWS Daily Summary

Daily Weather History Graph

Daily Weather History Graph

Search for Another Location

Airport or City:

Trip Planner

Search our weather history database for the weather conditions in past years. The results will help you decide how hot, cold, wet, or windy it might be!

Date:

Astronomy

Nov. 05, 2012 Rise Set
Actual Time 6:51 AM CST 5:05 PM CST
Civil Twilight 6:22 AM CST 5:34 PM CST
Nautical Twilight 5:49 AM CST 6:06 PM CST
Astronomical Twilight 5:17 AM CST 6:38 PM CST
Moon 10:43 PM CST (11/5) 12:10 PM CST (11/5)
Length of Visible Light 11h 11m
Length of Day
10h 14m
Waning Gibbous, 62% of the Moon is Illuminated
Nov 5
Waning Gibbous
Nov 6
Last Quarter
Nov 13
New
Nov 20
First Quarter
Nov 28
Full

Hourly Weather History & Observations

Time (CST) Temp. Windchill Dew Point Humidity Pressure Visibility Wind Dir Wind Speed Gust Speed Precip Events Conditions
12:15 AM 43.2 °F 38.4 °F 40.8 °F 91% 30.04 in 3.0 mi SE 8.1 mph - 0.03 in Rain Rain
12:35 AM 43.0 °F 38.8 °F 41.0 °F 93% 30.04 in 3.0 mi ESE 6.9 mph - 0.06 in Rain Light Rain
12:55 AM 42.8 °F 38.0 °F 40.6 °F 92% 30.04 in 3.0 mi East 8.1 mph - 0.08 in Rain Light Rain
1:15 AM 42.8 °F 38.0 °F 40.6 °F 92% 30.04 in 4.0 mi ESE 8.1 mph - 0.02 in Rain Light Rain
1:35 AM 42.8 °F 38.0 °F 40.5 °F 91% 30.04 in 3.0 mi East 8.1 mph - 0.03 in Rain Light Rain
1:55 AM 42.3 °F 37.9 °F 40.1 °F 92% 30.04 in 4.0 mi East 6.9 mph - 0.06 in Rain Light Rain
2:15 AM 42.1 °F 37.7 °F 40.1 °F 93% 30.04 in 4.0 mi East 6.9 mph - 0.01 in Rain Light Rain
2:35 AM 42.1 °F 36.6 °F 40.1 °F 93% 30.04 in 3.0 mi East 9.2 mph - 0.02 in Rain Light Rain
3:15 AM 41.5 °F 35.9 °F 39.6 °F 93% 30.03 in 4.0 mi East 9.2 mph - 0.01 in   Drizzle
3:35 AM 41.4 °F 35.2 °F 39.4 °F 93% 30.02 in 4.0 mi East 10.4 mph - 0.01 in   Drizzle
3:55 AM 41.4 °F 35.7 °F 39.4 °F 93% 30.03 in 4.0 mi East 9.2 mph - 0.01 in   Drizzle
4:15 AM 41.4 °F 35.7 °F 39.2 °F 92% 30.03 in 5.0 mi East 9.2 mph - N/A Rain Light Rain
4:35 AM 41.4 °F 36.2 °F 39.2 °F 92% 30.03 in 5.0 mi East 8.1 mph - N/A   Overcast
4:55 AM 41.4 °F 35.7 °F 39.2 °F 92% 30.03 in 5.0 mi East 9.2 mph - N/A   Overcast
5:15 AM 41.4 °F 36.2 °F 39.2 °F 92% 30.03 in 5.0 mi East 8.1 mph - N/A   Overcast
5:35 AM 41.2 °F 36.0 °F 39.2 °F 93% 30.04 in 4.0 mi East 8.1 mph - N/A   Overcast
6:15 AM 41.0 °F 35.2 °F 38.7 °F 91% 30.04 in 3.0 mi East 9.2 mph 16.1 mph N/A   Overcast
6:35 AM 41.0 °F 35.2 °F 38.7 °F 91% 30.04 in 4.0 mi East 9.2 mph - N/A   Overcast
6:55 AM 40.8 °F 35.6 °F 38.5 °F 91% 30.05 in 4.0 mi East 8.1 mph - N/A   Overcast
7:15 AM 40.6 °F 34.3 °F 38.3 °F 91% 30.06 in 4.0 mi East 10.4 mph - N/A   Overcast
7:35 AM 40.5 °F 35.1 °F 38.3 °F 92% 30.06 in 4.0 mi ENE 8.1 mph - N/A   Overcast
7:55 AM 40.3 °F 33.9 °F 37.9 °F 91% 30.07 in 4.0 mi East 10.4 mph - N/A   Overcast
8:15 AM 40.3 °F 34.4 °F 38.1 °F 92% 30.08 in 3.0 mi ENE 9.2 mph - N/A   Overcast
8:35 AM 40.5 °F 34.6 °F 38.3 °F 92% 30.09 in 3.0 mi NE 9.2 mph - N/A   Overcast
8:55 AM 40.6 °F 35.4 °F 38.3 °F 91% 30.09 in 3.0 mi ENE 8.1 mph - N/A   Overcast
9:15 AM 40.6 °F 34.3 °F 38.3 °F 91% 30.09 in 3.0 mi NE 10.4 mph - N/A   Overcast
9:35 AM 41.2 °F 34.5 °F 38.7 °F 91% 30.10 in 3.0 mi ENE 11.5 mph - N/A   Overcast
9:55 AM 41.2 °F 36.0 °F 38.7 °F 91% 30.10 in 3.0 mi NE 8.1 mph - N/A   Overcast
10:15 AM 41.4 °F 35.2 °F 38.7 °F 90% 30.11 in 4.0 mi ENE 10.4 mph - N/A   Overcast
10:35 AM 41.5 °F 36.4 °F 38.5 °F 89% 30.11 in 4.0 mi ENE 8.1 mph - N/A   Overcast
10:55 AM 41.7 °F 36.7 °F 38.7 °F 89% 30.12 in 4.0 mi ENE 8.1 mph - N/A   Overcast
11:15 AM 41.5 °F 36.4 °F 38.3 °F 88% 30.12 in 5.0 mi ENE 8.1 mph - N/A   Overcast
11:35 AM 41.9 °F 37.5 °F 38.7 °F 88% 30.12 in 4.0 mi NE 6.9 mph - N/A   Overcast
11:55 AM 41.7 °F 37.3 °F 38.5 °F 88% 30.12 in 4.0 mi NE 6.9 mph - N/A   Overcast
12:15 PM 41.7 °F 36.7 °F 38.3 °F 88% 30.12 in 4.0 mi NE 8.1 mph - N/A   Overcast
12:35 PM 41.7 °F 37.3 °F 38.3 °F 88% 30.12 in 4.0 mi NE 6.9 mph - N/A   Overcast
12:55 PM 41.4 °F 36.2 °F 37.9 °F 88% 30.11 in 4.0 mi NE 8.1 mph - N/A   Overcast
1:15 PM 41.9 °F 36.9 °F 38.3 °F 87% 30.11 in 5.0 mi NE 8.1 mph - N/A   Overcast
1:35 PM 42.1 °F 37.7 °F 38.3 °F 86% 30.11 in 5.0 mi ENE 6.9 mph - N/A   Overcast
1:55 PM 41.7 °F 37.3 °F 38.3 °F 88% 30.10 in 4.0 mi NE 6.9 mph - N/A   Overcast
2:15 PM 42.3 °F 37.3 °F 38.3 °F 86% 30.10 in 5.0 mi NE 8.1 mph - N/A   Overcast
2:35 PM 41.9 °F 37.5 °F 38.3 °F 87% 30.09 in 4.0 mi NE 6.9 mph - N/A   Overcast
2:55 PM 41.9 °F 38.2 °F 38.3 °F 87% 30.09 in 5.0 mi ENE 5.8 mph - N/A   Overcast
3:15 PM 41.9 °F 38.2 °F 37.9 °F 86% 30.10 in 5.0 mi NE 5.8 mph - N/A   Overcast
3:35 PM 41.9 °F 37.5 °F 37.9 °F 86% 30.11 in 5.0 mi ENE 6.9 mph - N/A   Overcast
3:55 PM 41.9 °F 38.2 °F 37.9 °F 86% 30.12 in 5.0 mi ENE 5.8 mph - N/A   Overcast
4:15 PM 41.9 °F 39.0 °F 37.6 °F 85% 30.12 in 5.0 mi ENE 4.6 mph - N/A   Overcast
4:35 PM 41.9 °F 38.2 °F 37.6 °F 85% 30.11 in 5.0 mi ENE 5.8 mph - N/A   Overcast
4:55 PM 41.9 °F 40.0 °F 37.6 °F 85% 30.12 in 7.0 mi East 3.5 mph - N/A   Overcast
5:15 PM 41.9 °F - 37.6 °F 85% 30.13 in 7.0 mi Calm Calm - N/A   Overcast
5:35 PM 41.9 °F - 37.8 °F 85% 30.13 in 7.0 mi Calm Calm - N/A   Overcast
5:55 PM 41.9 °F - 37.8 °F 85% 30.13 in 7.0 mi Calm Calm - N/A   Overcast
6:15 PM 42.1 °F - 37.9 °F 85% 30.14 in 7.0 mi Calm Calm - N/A   Overcast
6:35 PM 41.9 °F - 38.3 °F 87% 30.13 in 7.0 mi Calm Calm - N/A   Overcast
6:55 PM 41.9 °F - 38.3 °F 87% 30.13 in 5.0 mi Calm Calm - N/A   Overcast
7:15 PM 41.7 °F - 38.3 °F 88% 30.12 in 5.0 mi Calm Calm - N/A   Overcast
7:35 PM 41.5 °F 39.6 °F 38.3 °F 88% 30.11 in 7.0 mi East 3.5 mph - N/A   Overcast
7:55 PM 41.5 °F - 37.9 °F 87% 30.12 in 7.0 mi Calm Calm - N/A   Overcast
8:15 PM 41.4 °F 39.4 °F 37.6 °F 86% 30.10 in 7.0 mi East 3.5 mph - N/A   Overcast
8:35 PM 41.4 °F 38.4 °F 37.6 °F 86% 30.10 in 7.0 mi ESE 4.6 mph - N/A   Overcast
8:55 PM 41.2 °F 39.2 °F 37.6 °F 87% 30.10 in 7.0 mi SE 3.5 mph - N/A   Overcast
9:15 PM 41.2 °F 38.2 °F 37.4 °F 86% 30.10 in 7.0 mi SE 4.6 mph - N/A   Overcast
9:35 PM 41.2 °F - 37.4 °F 86% 30.10 in 7.0 mi Calm Calm - N/A   Overcast
9:55 PM 41.2 °F - 37.4 °F 86% 30.11 in 7.0 mi Calm Calm - N/A   Overcast
10:15 PM 41.0 °F - 37.6 °F 88% 30.09 in 7.0 mi Calm Calm - N/A   Overcast
10:35 PM 41.0 °F - 37.6 °F 88% 30.09 in 7.0 mi Calm Calm - N/A   Overcast
10:55 PM 41.0 °F 39.0 °F 37.8 °F 88% 30.09 in 7.0 mi SSW 3.5 mph - N/A   Overcast
11:15 PM 41.0 °F 39.0 °F 37.8 °F 88% 30.09 in 7.0 mi WSW 3.5 mph - N/A   Overcast
11:35 PM 41.0 °F - 37.8 °F 88% 30.08 in 5.0 mi Calm Calm - N/A   Overcast
11:55 PM 41.0 °F - 37.9 °F 89% 30.07 in 5.0 mi Calm Calm - N/A   Overcast